Date String (YYYY-MM-DD hh:mm:ss) UTC,Instrument flags,Ambient pressure (hPa),Sample flow (lpm),Bypass flow (lpm),Sample temperature (°C),Ambient temperature (°C),ASC tube jacket temperature (°C),LED temperature (°C),Box temperature (°C),Sample RH (%),Span deviation,Mass concentration (μg/m³),Mass concentration (μg/m³),Mass concentration (μg/m³)
DateTimeUTC,F1_M11,P_M11,Q1_M11,Q2_M11,T1_M11,T2_M11,T3_M11,T4_M11,T5_M11,U1_M11,ZSPAN_M11,X0_M11,X2_M11,X1_M11
2023-05-07 09:00:00,,0827.4,5.00,0.00,28.8,27.0,00.0,37.2,30.2,09.7,0000.0,0008.94,0003.58,0002.04
2023-05-07 09:01:00,,0827.4,4.99,0.00,28.8,27.0,00.0,37.2,30.1,09.7,0000.0,0008.91,0003.58,0002.04
2023-05-07 09:02:00,,0827.4,5.00,0.00,28.8,27.0,00.0,37.2,30.1,09.7,0000.0,0008.86,0003.58,0002.04
2023-05-07 09:03:00,,0827.4,5.00,0.00,28.8,27.0,00.0,37.2,30.1,09.7,0000.0,0008.74,0003.57,0002.03
2023-05-07 09:04:00,,0827.4,4.99,0.00,28.7,26.9,00.0,37.2,30.1,09.7,0000.0,0008.73,0003.54,0002.02
2023-05-07 09:05:00,,0827.4,5.01,0.00,28.7,26.9,00.0,37.2,30.1,09.7,0000.0,0008.65,0003.53,0002.02
2023-05-07 09:06:00,,0827.4,5.00,0.00,28.7,26.8,00.0,37.2,30.1,09.8,0000.0,0009.13,0003.53,0002.01
2023-05-07 09:07:00,,0827.4,5.01,0.00,28.7,26.8,00.0,37.1,30.0,09.8,0000.0,0009.45,0003.54,0002.02
2023-05-07 09:08:00,,0827.4,5.00,0.00,28.7,26.8,00.0,37.1,30.1,09.8,0000.0,0009.64,0003.52,0002.01
2023-05-07 09:09:00,,0827.4,5.00,0.00,28.7,26.8,00.0,37.1,30.1,09.8,0000.0,0009.75,0003.49,0002.01
2023-05-07 09:10:00,,0827.4,5.00,0.00,28.7,26.8,00.0,37.1,30.0,09.8,0000.0,0009.69,0003.48,0002.02
2023-05-07 09:11:00,,0827.3,5.00,0.00,28.6,26.7,00.0,37.1,30.0,09.7,0000.0,0009.59,0003.44,0002.01
2023-05-07 09:12:00,,0827.4,5.00,0.00,28.6,26.7,00.0,37.1,29.9,09.7,0000.0,0009.48,0003.38,0002.00
2023-05-07 09:13:00,,0827.4,5.00,0.00,28.6,26.6,00.0,37.0,29.9,09.8,0000.0,0009.58,0003.37,0001.98
2023-05-07 09:14:00,,0827.3,5.00,0.00,28.6,26.6,00.0,37.0,29.9,09.8,0000.0,0009.66,0003.38,0001.97
2023-05-07 09:15:00,,0827.4,5.00,0.00,28.6,26.6,00.0,37.0,29.9,09.8,0000.0,0009.62,0003.35,0001.98
2023-05-07 09:16:00,,0827.4,5.01,0.00,28.6,26.6,00.0,37.0,29.9,09.8,0000.0,0009.52,0003.32,0001.97
2023-05-07 09:17:00,,0827.3,4.99,0.00,28.6,26.7,00.0,37.0,29.9,09.9,0000.0,0009.11,0003.31,0001.99
2023-05-07 09:18:00,,0827.3,4.99,0.00,28.6,26.6,00.0,37.0,29.9,09.8,0000.0,0008.66,0003.29,0001.97
2023-05-07 09:19:00,,0827.3,5.01,0.00,28.5,26.6,00.0,37.0,29.9,09.9,0000.0,0008.43,0003.28,0001.96
2023-05-07 09:20:00,,0827.3,5.00,0.00,28.5,26.6,00.0,37.0,29.9,09.8,0000.0,0008.19,0003.30,0001.95
2023-05-07 09:21:00,,0827.3,5.01,0.00,28.5,26.6,00.0,37.0,29.8,09.8,0000.0,0008.22,0003.29,0001.94
2023-05-07 09:22:00,,0827.4,5.00,0.00,28.5,26.6,00.0,36.9,29.9,09.8,0000.0,0008.32,0003.34,0001.95
2023-05-07 09:23:00,,0827.4,4.99,0.00,28.5,26.6,00.0,36.9,29.8,09.9,0000.0,0008.31,0003.37,0001.97
2023-05-07 09:24:00,,0827.4,4.99,0.00,28.5,26.6,00.0,36.9,29.8,10.0,0000.0,0008.19,0003.37,0001.98
2023-05-07 09:25:00,,0827.4,5.00,0.00,28.5,26.6,00.0,36.9,29.8,10.1,0000.0,0008.42,0003.33,0001.98
2023-05-07 09:26:00,,0827.4,5.00,0.00,28.5,26.6,00.0,36.9,29.8,10.1,0000.0,0008.49,0003.33,0001.96
2023-05-07 09:27:00,,0827.4,5.00,0.00,28.5,26.6,00.0,36.9,29.8,09.8,0000.0,0008.53,0003.34,0001.96
2023-05-07 09:28:00,,0827.4,5.00,0.00,28.5,26.6,00.0,36.9,29.8,09.7,0000.0,0008.03,0003.30,0001.95
2023-05-07 09:29:00,,0827.4,5.00,0.00,28.4,26.5,00.0,36.9,29.8,09.8,0000.0,0008.56,0003.29,0001.95
2023-05-07 09:30:00,,0827.4,5.00,0.00,28.4,26.5,00.0,36.9,29.8,09.8,0000.0,0009.15,0003.30,0001.94
2023-05-07 09:31:00,,0827.4,5.00,0.00,28.4,26.5,00.0,36.8,29.8,09.8,0000.0,0009.06,0003.27,0001.95
2023-05-07 09:32:00,,0827.4,5.00,0.00,28.4,26.4,00.0,36.8,29.7,09.9,0000.0,0008.89,0003.22,0001.94
2023-05-07 09:33:00,,0827.4,4.99,0.00,28.4,26.4,00.0,36.8,29.7,10.1,0000.0,0008.74,0003.19,0001.94
2023-05-07 09:34:00,,0827.4,5.01,0.00,28.4,26.4,00.0,36.8,29.7,09.8,0000.0,0008.68,0003.17,0001.93
2023-05-07 09:35:00,,0827.4,4.99,0.00,28.4,26.4,00.0,36.8,29.7,09.8,0000.0,0008.86,0003.18,0001.91
2023-05-07 09:36:00,,0827.4,5.00,0.00,28.4,26.4,00.0,36.8,29.7,09.8,0000.0,0008.57,0003.20,0001.91
2023-05-07 09:37:00,,0827.4,4.99,0.00,28.3,26.4,00.0,36.8,29.7,09.9,0000.0,0008.29,0003.18,0001.91
2023-05-07 09:38:00,,0827.4,5.00,0.00,28.3,26.4,00.0,36.8,29.7,09.9,0000.0,0008.71,0003.21,0001.91
2023-05-07 09:39:00,,0827.4,5.01,0.00,28.3,26.4,00.0,36.8,29.6,09.8,0000.0,0009.24,0003.29,0001.91
2023-05-07 09:40:00,,0827.4,5.00,0.00,28.3,26.3,00.0,36.8,29.6,09.8,0000.0,0008.92,0003.30,0001.90
2023-05-07 09:41:00,,0827.4,5.01,0.00,28.3,26.3,00.0,36.7,29.7,09.7,0000.0,0008.36,0003.27,0001.91
2023-05-07 09:42:00,,0827.4,4.98,0.00,28.3,26.3,00.0,36.7,29.6,09.7,0000.0,0008.40,0003.29,0001.90
2023-05-07 09:43:00,,0827.4,4.99,0.00,28.3,26.3,00.0,36.7,29.6,09.8,0000.0,0008.74,0003.34,0001.91
2023-05-07 09:44:00,,0827.4,5.01,0.00,28.3,26.3,00.0,36.7,29.6,09.9,0000.0,0009.54,0003.39,0001.91
2023-05-07 09:45:00,,0827.4,5.01,0.00,28.2,26.3,00.0,36.7,29.6,09.8,0000.0,0009.97,0003.44,0001.91
2023-05-07 09:46:00,,0827.4,5.00,0.00,28.2,26.4,00.0,36.7,29.6,09.6,0000.0,0010.96,0003.47,0001.92
2023-05-07 09:47:00,,0827.4,5.00,0.00,28.2,26.4,00.0,36.7,29.6,09.7,0000.0,0011.23,0003.49,0001.92
2023-05-07 09:48:00,,0827.4,5.00,0.00,28.2,26.3,00.0,36.7,29.5,09.8,0000.0,0011.23,0003.51,0001.91
2023-05-07 09:49:00,,0827.4,5.00,0.00,28.2,26.3,00.0,36.7,29.5,09.8,0000.0,0011.16,0003.54,0001.90
2023-05-07 09:50:00,,0827.4,5.00,0.00,28.2,26.3,00.0,36.7,29.5,09.8,0000.0,0010.74,0003.48,0001.87
2023-05-07 09:51:00,,0827.4,5.01,0.00,28.2,26.3,00.0,36.6,29.5,09.9,0000.0,0010.32,0003.42,0001.87
2023-05-07 09:52:00,,0827.4,5.01,0.00,28.2,26.2,00.0,36.6,29.5,09.9,0000.0,0010.64,0003.42,0001.87
2023-05-07 09:53:00,,0827.4,4.99,0.00,28.2,26.2,00.0,36.6,29.5,09.9,0000.0,0010.83,0003.39,0001.85
2023-05-07 09:54:00,,0827.4,4.99,0.00,28.2,26.2,00.0,36.6,29.5,09.8,0000.0,0010.91,0003.37,0001.84
2023-05-07 09:55:00,,0827.4,4.99,0.00,28.1,26.2,00.0,36.6,29.5,09.8,0000.0,0010.40,0003.30,0001.85
2023-05-07 09:56:00,,0827.4,5.00,0.00,28.1,26.2,00.0,36.6,29.5,09.9,0000.0,0010.19,0003.24,0001.86
2023-05-07 09:57:00,,0827.4,5.01,0.00,28.1,26.2,00.0,36.6,29.4,10.0,0000.0,0008.87,0003.18,0001.84
2023-05-07 09:58:00,,0827.4,5.01,0.00,28.1,26.2,00.0,36.6,29.5,09.9,0000.0,0008.37,0003.13,0001.85
2023-05-07 09:59:00,,0827.4,5.00,0.00,28.1,26.3,00.0,36.6,29.6,09.8,0000.0,0008.27,0003.05,0001.83
